Notices

What's New in latest Release from April 7th, 2021:

- Updated Glossary, including Speed of Maximum Gust, and Total Hourly Precipitation

- Updated national and regional climate services offices contacts and prices information

- Addition of station inventory lists for 1981-2010, 1971-2000, and 1961-1990 Normals.

If you haven't already, please take our survey and provide feedback about our website: https://eccc.sondage-survey.ca/f/LanguageSelection.aspx?s=442ca660-fcf1-47c0-95a9-59707d6fd709

Hourly Data Report for September 25, 2004

SHERBROOKE A
QUEBEC

45°26'00.000" N
71°41'00.000" W
241.40 m
7028124
71610
YSC

Download Data

Hourly Data (September 2004)
Hourly Data Report for September 25, 2004
TIME
LST
Temp Definition
°C
Dew Point Definition
°C
Rel Hum Definition
%
Precip. Amount Definition
mm

Wind Dir Definition
10's deg

Wind Spd Definition
km/h
Visibility Definition
km
Stn Press Definition
kPa
Hmdx Definition


Wind Chill Definition


Weather Definition


00:00 9.3 8.5 95   8 4 15.0 99.00      
01:00 9.6 8.5 93   8 4 15.0 98.98      
02:00 9.0 8.5 97   9 4 15.0 98.93      
03:00 8.1 7.6 97     0 15.0 98.90      
04:00 8.6 7.9 95   11 4 15.0 98.86      
05:00 8.8 8.0 95   6 4 15.0 98.83      
06:00 9.3 8.5 95     0 15.0 98.80      
07:00 11.2 10.2 94     0 24.1 98.76     Mostly Cloudy
08:00 13.6 11.9 89     0 24.1 98.74     Mostly Cloudy
09:00 17.7 13.3 75   23 4 24.1 98.69     Mostly Cloudy
10:00 20.0 14.7 72   26 4 24.1 98.63     Mostly Cloudy
11:00 22.2 17.2 73   25 9 24.1 98.57 28   Mostly Cloudy
12:00 22.2 16.6 71   23 17 24.1 98.51 27   Mostly Cloudy
13:00 22.7 17.2 71   24 11 24.1 98.43 28   Mostly Cloudy
14:00 23.8 17.6 68   26 19 19.3 98.36 30   Mostly Cloudy
15:00 20.8 18.0 84   27 15 19.3 98.36 27   Cloudy
16:00 20.8 16.5 76   27 19 24.1 98.37 26   Mostly Cloudy
17:00 20.4 13.9 66   27 17 15.0 98.40      
18:00 18.5 14.8 79   22 7 15.0 98.48      
19:00 17.8 15.5 86   24 13 11.3 98.49      
20:00 17.4 13.7 79   26 9 15.0 98.56      
21:00 16.0 12.4 79   27 9 15.0 98.60      
22:00 13.5 10.8 84   28 7 15.0 98.63      
23:00 13.4 10.9 85   29 7 15.0 98.68      

Notes on Data Quality.

Legend

  • E = Estimated
  • M = Missing
  • NA = Not Available*
  • [empty] = Indicates an unobserved value
Date modified: